TimeCST,TemperatureF,Dew PointF,Humidity,Sea Level PressureIn,VisibilityMPH,Wind Direction,Wind SpeedMPH,Gust SpeedMPH,PrecipitationIn,Events,Conditions,WindDirDegrees,DateUTC
12:14 AM,59.0,57.2,94,29.78,7.0,WSW,5.8,-,0.04,Rain,Light Rain,250,2012-12-10 06:14:00
12:21 AM,59.0,57.2,94,29.78,6.0,West,8.1,-,0.05,Rain,Light Rain,260,2012-12-10 06:21:00
12:40 AM,57.2,57.2,100,29.75,5.0,WNW,3.5,-,0.09,Rain,Light Rain,290,2012-12-10 06:40:00
12:43 AM,57.2,57.2,100,29.74,5.0,Calm,Calm,-,0.09,Rain,Rain,0,2012-12-10 06:43:00
12:52 AM,55.9,54.0,93,29.73,8.0,North,12.7,-,0.10,Rain,Light Rain,350,2012-12-10 06:52:00
1:08 AM,55.4,53.6,94,29.74,10.0,North,12.7,21.9,0.00,,Overcast,350,2012-12-10 07:08:00
1:52 AM,53.1,50.0,89,29.75,10.0,NNW,13.8,-,0.00,,Overcast,340,2012-12-10 07:52:00
2:52 AM,50.0,48.0,93,29.76,2.0,North,16.1,-,0.00,Rain,Light Rain,350,2012-12-10 08:52:00
3:09 AM,48.2,46.4,93,29.79,3.0,NNW,16.1,-,0.00,Rain,Light Rain,340,2012-12-10 09:09:00
3:44 AM,48.2,46.4,93,29.79,5.0,North,12.7,-,0.03,,Overcast,350,2012-12-10 09:44:00
3:47 AM,48.2,46.4,93,29.78,4.0,NNW,13.8,-,0.03,,Overcast,340,2012-12-10 09:47:00
3:52 AM,48.0,46.0,93,29.77,3.0,NNW,11.5,-,0.03,,Overcast,340,2012-12-10 09:52:00
4:52 AM,46.0,44.1,93,29.79,8.0,North,13.8,-,0.00,Rain,Light Rain,350,2012-12-10 10:52:00
5:41 AM,44.6,44.6,100,29.79,5.0,North,9.2,-,0.01,Rain,Light Rain,350,2012-12-10 11:41:00
5:52 AM,45.0,43.0,93,29.79,6.0,North,13.8,-,0.02,Rain,Light Rain,350,2012-12-10 11:52:00
5:55 AM,44.6,42.8,93,29.78,7.0,North,11.5,-,0.00,,Overcast,350,2012-12-10 11:55:00
6:25 AM,44.6,42.8,93,29.79,5.0,NNW,10.4,-,0.00,,Overcast,340,2012-12-10 12:25:00
6:52 AM,44.1,39.9,85,29.81,7.0,NNW,13.8,-,0.00,,Overcast,340,2012-12-10 12:52:00
7:12 AM,44.6,39.2,81,29.80,8.0,North,6.9,-,0.00,Rain,Light Rain,360,2012-12-10 13:12:00
8:52 AM,44.1,39.0,82,29.83,10.0,NNW,9.2,-,0.00,,Overcast,340,2012-12-10 14:52:00
9:12 AM,44.6,39.2,81,29.83,9.0,NNW,9.2,-,0.01,Rain,Light Rain,340,2012-12-10 15:12:00
9:52 AM,44.1,39.0,82,29.83,10.0,NNW,10.4,-,0.01,,Overcast,340,2012-12-10 15:52:00
10:04 AM,44.6,39.2,81,29.83,10.0,NNW,9.2,-,N/A,,Overcast,330,2012-12-10 16:04:00
10:52 AM,41.0,37.0,86,29.85,6.0,NW,15.0,24.2,0.00,Rain,Light Rain,320,2012-12-10 16:52:00
11:02 AM,41.0,37.4,87,29.85,7.0,NW,18.4,24.2,0.00,,Overcast,310,2012-12-10 17:02:00
11:52 AM,39.0,35.1,86,29.83,6.0,NW,13.8,-,0.00,,Overcast,320,2012-12-10 17:52:00
12:52 PM,37.9,33.1,83,29.85,8.0,NW,15.0,21.9,N/A,,Overcast,310,2012-12-10 18:52:00
1:52 PM,36.0,30.9,82,29.86,9.0,NNW,15.0,-,0.00,,Overcast,340,2012-12-10 19:52:00
2:45 PM,35.6,30.2,81,29.86,8.0,NW,11.5,-,N/A,,Overcast,320,2012-12-10 20:45:00
3:52 PM,35.1,30.0,82,29.88,10.0,NW,9.2,-,N/A,,Overcast,320,2012-12-10 21:52:00
4:52 PM,34.0,28.9,82,29.92,10.0,NW,13.8,-,N/A,,Overcast,320,2012-12-10 22:52:00
5:52 PM,34.0,28.0,79,29.97,10.0,NW,15.0,-,N/A,,Overcast,320,2012-12-10 23:52:00
6:52 PM,33.1,27.0,78,29.99,10.0,NNW,12.7,-,N/A,,Overcast,330,2012-12-11 00:52:00
7:52 PM,33.1,27.0,78,30.01,10.0,NNW,9.2,-,N/A,,Overcast,330,2012-12-11 01:52:00
8:52 PM,33.1,26.1,75,30.03,10.0,NW,10.4,-,N/A,,Overcast,320,2012-12-11 02:52:00
9:52 PM,33.1,26.1,75,30.04,10.0,NNW,9.2,-,N/A,,Overcast,340,2012-12-11 03:52:00
10:16 PM,32.0,26.6,80,30.03,10.0,NNW,11.5,-,N/A,,Overcast,330,2012-12-11 04:16:00
10:52 PM,32.0,26.1,79,30.05,10.0,North,10.4,-,N/A,,Overcast,350,2012-12-11 04:52:00
11:52 PM,32.0,26.1,79,30.06,10.0,NNW,6.9,-,N/A,,Overcast,330,2012-12-11 05:52:00